User: anonymous   Login
Location: Irma
(52.9170°N, 111.2330°W)
Time: 07:25:48
(UTC-06:00)
Language:

Cosmos 1633 Rocket - Orbit

View from above orbital plane
View from above orbital plane
View from above satellite
View from above satellite

Ground track
Ground track

The orbit data is extracted from the following two-line orbital elements,

1 15593U 85020B   14303.98818601  .00000622  00000-0  72178-4 0  8055
2 15593 082.5381 080.9697 0010797 336.5621 162.6932 14.83800595601954
Epoch (UTC): 30 October 2014 23:42:59
Eccentricity: 0.0010797
inclination: 82.5381°
perigee height: 610 km
apogee height: 625 km
right ascension of ascending node: 80.9697°
argument of perigee: 336.5621°
revolutions per day: 14.83800595
mean anomaly at epoch: 162.6932°
orbit number at epoch: 60195

The dashed part of the orbit path shows where the satellite is in the earth's shadow,  

DLR